Wind_Speed
37 36 36 35 35 34 33 33 33 32 32 31 31 31 31 30 30 30 30 30 30 30 31 31 31 31 32 32 32 32 32 32 32 32 32 32 33 33 34 34 33 33 33
39 38 38 38 37 36 36 35 34 34 33 33 33 33 33 33 32 32 32 32 32 33 33 33 33 33 34 34 34 34 35 34 34 34 34 35 35 35 36 36 36 35 35
40 40 40 39 39 38 38 37 37 36 36 35 35 35 35 34 34 34 34 34 34 35 35 35 35 35 35 35 35 36 36 36 36 36 37 37 37 37 37 38 38 38 37
42 41 41 41 41 41 40 40 40 40 39 38 38 37 37 36 36 36 35 35 36 36 37 37 37 37 37 37 37 37 37 38 38 38 38 38 39 39 40 40 40 39 38
43 43 42 42 42 42 42 42 42 41 41 40 40 40 39 38 37 38 37 38 37 37 38 38 38 38 38 38 39 39 39 39 40 40 40 40 41 41 41 41 41 41 40
44 44 43 43 42 42 42 43 43 42 42 42 42 42 41 40 40 40 40 40 39 39 38 39 39 39 39 40 40 40 40 41 41 41 41 42 42 43 43 43 42 42 42
43 42 42 42 43 43 43 44 44 44 44 44 43 43 41 41 41 41 41 41 41 41 40 40 40 40 40 41 41 41 41 41 41 42 43 43 44 45 44 44 44 44 43
43 43 42 42 42 43 44 44 45 44 44 44 43 43 43 42 42 41 41 41 41 41 41 41 42 42 42 42 42 42 42 42 42 43 42 43 44 44 44 44 44 44 43
44 44 44 43 43 43 43 44 43 44 45 45 44 45 44 43 42 43 42 42 42 43 42 42 43 43 43 44 44 43 42 42 43 43 43 44 44 44 44 44 44 44 44
43 43 44 45 45 44 43 43 43 44 44 44 44 45 45 44 43 42 42 42 41 41 41 42 43 42 43 43 43 43 42 41 42 43 44 44 45 45 45 45 45 45 46
41 41 42 43 44 44 43 43 43 43 44 44 44 44 45 44 43 43 42 41 41 42 43 42 42 42 42 41 42 42 42 43 43 44 44 45 45 45 46 46 46 46 46
39 40 40 41 42 42 42 41 42 42 42 42 43 43 44 44 45 45 44 43 43 43 43 44 43 42 42 42 42 42 43 44 45 46 46 46 46 46 47 46 46 47 47
37 38 38 39 40 41 42 40 40 40 41 41 41 43 44 45 45 44 44 44 44 43 43 44 45 44 45 44 43 44 44 46 47 47 47 47 47 47 47 48 48 49 49
35 36 37 37 38 39 39 39 39 40 40 41 41 42 43 43 43 43 43 43 43 43 44 44 44 44 45 44 45 45 46 47 48 48 48 49 49 50 49 49 49 50 50
33 34 35 36 37 37 37 38 38 39 39 39 40 40 41 41 42 42 43 43 43 43 42 42 42 43 44 44 45 46 47 48 49 49 50 50 50 50 50 51 51 50 50
32 33 33 35 36 36 37 37 37 36 36 36 37 38 39 40 40 41 42 42 42 42 41 41 41 42 43 45 46 46 48 50 50 50 50 51 50 49 49 49 50 49 48
34 34 34 34 34 34 35 36 36 36 36 36 36 36 38 39 39 40 41 40 41 41 41 40 41 42 43 44 45 47 49 49 49 49 50 50 50 49 48 49 49 47 45
33 33 32 32 32 33 34 35 35 35 35 35 35 36 36 36 37 37 38 38 39 38 39 40 41 42 43 45 46 47 48 48 49 49 49 49 49 48 48 47 46 44 42
31 31 31 31 31 31 31 32 33 34 34 34 34 34 35 35 35 36 37 37 37 38 39 40 40 42 43 44 45 47 47 47 48 48 48 48 48 47 46 45 45 42 41
29 29 29 30 30 29 30 30 31 31 32 33 33 33 33 34 35 36 36 36 36 38 39 40 40 41 43 44 44 45 46 46 47 47 47 47 45 45 45 44 42 40 39
27 26 27 28 28 28 28 29 29 30 30 31 31 32 32 33 33 34 35 36 37 38 39 39 40 40 41 42 43 44 45 45 46 46 45 44 43 43 43 42 40 39 38
26 26 26 26 26 26 27 27 28 28 29 29 30 30 30 31 32 33 34 35 36 38 38 39 39 40 40 41 42 43 43 43 44 44 44 42 41 40 40 40 39 37 36
25 25 25 25 26 26 26 26 27 27 28 29 29 29 30 30 32 33 33 34 36 36 38 39 40 40 40 41 42 42 43 43 43 42 42 41 40 39 38 38 37 34 33
23 23 24 24 24 24 25 26 27 28 29 29 29 30 30 30 31 32 33 34 35 36 38 40 41 41 41 41 42 42 42 41 42 41 41 40 39 38 37 35 34 32 30
23 23 23 22 23 24 25 26 27 28 28 28 29 30 30 31 32 33 34 35 35 37 39 39 40 41 41 41 41 41 41 40 40 40 39 39 38 37 35 34 33 32 30
23 23 23 23 24 24 25 26 27 27 28 29 30 30 31 32 32 34 35 36 37 38 39 40 40 40 41 41 41 41 41 40 40 39 38 38 36 35 32 30 31 31 29
Wind_Direction
255 256 257 259 260 262 264 266 268 268 267 268 269 271 273 274 275 278 280 280 281 282 284 284 285 285 286 288 290 290 290 290 290 291 291 292 293 293 293 293 293 293 294
255 256 256 258 259 261 262 264 266 267 267 268 269 270 271 273 276 277 279 280 281 281 282 283 284 284 285 287 288 288 288 288 288 289 290 291 292 292 292 292 292 292 293
256 255 256 257 258 259 260 262 263 265 266 268 269 270 271 273 275 276 278 280 281 281 282 283 283 284 285 285 286 288 288 287 288 288 289 290 291 292 292 291 291 291 291
255 255 256 256 257 258 259 260 263 264 265 267 269 270 271 272 273 275 277 280 281 281 281 281 282 284 284 285 286 286 287 287 288 288 289 290 291 291 291 291 290 290 290
254 255 255 256 257 259 259 260 262 263 265 266 267 269 270 271 272 274 277 279 281 282 281 282 283 284 284 285 286 286 286 287 288 288 289 290 290 290 290 290 290 289 289
254 255 255 256 258 259 259 260 261 262 265 265 267 268 269 270 272 274 276 278 280 282 282 283 284 284 284 285 285 285 286 287 289 289 289 289 289 289 289 289 289 288 288
254 254 255 256 257 258 259 260 260 261 263 265 267 267 267 268 271 273 275 276 278 280 280 281 282 283 284 285 285 285 286 287 288 289 289 289 289 290 289 288 288 287 287
255 255 256 257 258 258 259 259 261 262 263 264 266 267 268 269 270 272 274 276 277 278 280 281 281 283 284 285 285 285 286 286 287 288 290 290 291 291 290 289 289 288 287
253 255 255 256 258 259 259 260 261 262 262 264 264 266 267 267 268 269 271 274 276 277 279 280 281 283 283 284 284 285 286 287 288 289 290 290 291 290 289 289 289 288 287
254 255 255 256 257 258 259 261 261 262 262 263 264 265 266 267 268 269 270 272 275 277 279 281 282 282 283 283 283 284 285 287 288 289 289 290 291 290 289 288 288 287 287
254 255 256 256 256 257 259 261 263 264 263 263 265 266 266 266 267 269 270 273 276 278 280 283 283 282 283 284 284 283 284 286 287 288 290 290 290 289 288 288 288 287 287
256 257 258 258 257 257 259 261 263 263 263 264 265 265 266 267 268 270 271 273 275 278 280 282 283 283 285 285 284 285 286 286 287 288 289 290 290 288 288 289 288 287 288
257 258 259 259 259 258 259 261 261 262 263 265 266 266 267 269 269 271 272 274 275 277 279 280 281 283 284 285 285 286 286 287 287 288 289 290 289 289 288 288 288 289 288
257 259 260 260 260 260 260 260 262 263 264 264 267 268 269 269 270 272 275 277 278 279 279 280 281 282 284 284 286 287 288 288 288 289 289 290 290 289 288 288 289 289 288
259 261 262 261 261 260 260 261 263 265 267 266 266 267 268 270 272 275 278 280 280 280 279 280 280 281 283 284 286 288 289 290 290 290 290 291 291 290 289 289 290 290 289
261 262 262 262 262 262 262 262 263 265 267 266 266 268 269 272 274 277 279 280 280 281 280 281 282 283 284 286 287 288 289 290 290 290 290 292 292 292 292 291 291 291 290
260 262 263 263 263 262 262 262 264 265 266 267 269 271 272 273 275 278 279 280 281 282 283 283 283 284 284 286 288 289 290 290 291 291 291 294 294 293 293 292 291 290 289
258 259 261 261 262 261 262 263 264 265 266 267 270 272 273 275 277 277 279 280 282 283 284 284 284 285 286 288 289 290 290 290 292 291 292 293 293 293 293 292 292 290 288
257 259 260 261 262 262 263 264 265 267 267 268 270 272 273 275 276 278 280 282 283 285 286 286 286 287 288 289 290 291 291 291 293 293 292 292 293 293 293 292 292 290 287
258 261 260 260 262 262 263 266 267 268 268 269 270 272 273 274 277 280 282 284 285 287 289 289 289 289 290 291 291 292 292 293 295 295 293 293 293 294 295 293 293 289 286
256 260 260 260 260 262 264 266 266 268 269 270 271 273 275 277 281 282 284 285 286 289 290 291 292 292 293 293 294 294 294 294 295 296 295 293 294 295 295 293 292 290 286
257 259 259 260 262 264 265 266 267 268 269 270 272 274 276 278 282 285 286 288 289 290 291 292 293 296 296 296 296 296 296 296 297 296 295 294 295 295 295 294 293 289 286
259 259 259 263 264 264 263 265 268 269 270 271 272 275 277 281 283 285 288 289 291 292 293 293 294 296 297 298 298 298 298 299 299 298 296 295 294 294 295 295 293 289 285
262 261 263 265 265 264 264 267 268 270 271 271 273 277 279 281 283 285 288 291 293 294 295 295 296 297 297 298 298 299 299 300 301 301 299 297 295 294 296 294 292 289 283
262 262 263 265 267 267 267 269 270 272 272 273 277 279 280 283 285 288 290 291 294 296 298 298 299 299 299 298 298 299 299 300 301 301 299 299 297 295 294 294 292 288 282
263 262 263 266 269 270 270 271 273 274 273 276 279 280 282 284 286 289 291 292 294 297 299 300 301 301 301 300 299 300 300 300 300 300 299 299 299 296 295 294 292 289 283
Height
5811 5813 5815 5816 5818 5819 5820 5821 5822 5823 5824 5824 5825 5825 5826 5826 5826 5826 5826 5826 5825 5824 5824 5823 5822 5822 5821 5820 5818 5817 5816 5814 5813 5811 5810 5808 5807 5805 5803 5802 5800 5798 5796
5802 5805 5807 5809 5811 5812 5813 5814 5815 5816 5817 5818 5818 5819 5819 5819 5820 5819 5819 5819 5818 5818 5817 5816 5816 5815 5814 5813 5812 5810 5809 5807 5806 5804 5803 5801 5799 5798 5796 5794 5792 5790 5788
5794 5796 5799 5801 5802 5804 5805 5806 5808 5809 5810 5810 5811 5812 5812 5812 5812 5812 5812 5812 5811 5811 5810 5809 5808 5808 5807 5806 5804 5803 5801 5800 5798 5797 5795 5793 5791 5789 5787 5785 5783 5781 5779
5785 5787 5790 5792 5793 5795 5797 5798 5800 5801 5802 5802 5803 5804 5804 5805 5805 5805 5805 5804 5804 5803 5802 5802 5801 5800 5799 5798 5796 5795 5793 5792 5790 5788 5787 5785 5783 5781 5778 5776 5774 5772 5770
5776 5778 5781 5783 5785 5786 5788 5790 5791 5792 5793 5794 5795 5795 5796 5796 5797 5797 5797 5797 5796 5795 5794 5794 5793 5792 5791 5790 5788 5787 5785 5783 5781 5780 5778 5776 5773 5771 5769 5767 5765 5762 5760
5767 5769 5772 5774 5776 5777 5779 5781 5782 5783 5784 5785 5786 5786 5787 5788 5788 5789 5789 5788 5788 5787 5786 5785 5785 5784 5782 5781 5779 5778 5776 5774 5772 5770 5768 5766 5764 5762 5759 5757 5754 5752 5750
5757 5759 5762 5764 5766 5768 5769 5771 5772 5774 5775 5776 5776 5777 5778 5779 5780 5780 5780 5780 5779 5778 5778 5777 5776 5775 5774 5772 5770 5769 5767 5765 5763 5760 5758 5756 5753 5751 5748 5746 5743 5741 5739
5747 5749 5752 5754 5756 5757 5759 5761 5762 5764 5765 5766 5767 5768 5769 5770 5771 5771 5771 5770 5770 5769 5769 5768 5767 5766 5764 5763 5761 5759 5757 5755 5753 5750 5748 5745 5743 5740 5737 5734 5732 5729 5727
5737 5740 5742 5745 5746 5747 5749 5751 5752 5754 5755 5756 5757 5758 5759 5761 5761 5762 5762 5761 5761 5760 5759 5758 5757 5756 5754 5752 5751 5749 5747 5745 5742 5740 5738 5735 5732 5729 5726 5723 5720 5718 5715
5727 5729 5732 5734 5736 5737 5739 5741 5742 5743 5745 5746 5747 5748 5749 5750 5751 5752 5753 5752 5751 5751 5750 5748 5747 5745 5743 5741 5740 5738 5736 5734 5732 5729 5727 5724 5721 5717 5714 5711 5708 5706 5703
5717 5720 5722 5724 5726 5728 5729 5730 5732 5733 5735 5736 5737 5738 5738 5739 5740 5741 5743 5743 5742 5741 5739 5738 5736 5734 5732 5730 5729 5727 5725 5723 5721 5718 5715 5712 5709 5706 5703 5699 5696 5693 5690
5708 5711 5713 5714 5716 5718 5719 5721 5722 5723 5725 5726 5727 5728 5729 5730 5731 5731 5732 5733 5732 5731 5729 5728 5726 5724 5721 5719 5717 5715 5713 5711 5709 5706 5703 5700 5697 5694 5690 5687 5684 5680 5677
5700 5702 5704 5705 5707 5709 5710 5712 5713 5714 5715 5717 5718 5718 5719 5720 5721 5721 5722 5722 5722 5722 5720 5718 5715 5713 5711 5708 5707 5704 5702 5700 5697 5694 5691 5688 5684 5681 5678 5674 5670 5667 5663
5692 5694 5695 5697 5698 5700 5701 5702 5704 5705 5706 5707 5708 5709 5710 5710 5711 5711 5711 5711 5711 5711 5710 5708 5705 5702 5700 5698 5696 5693 5690 5688 5685 5682 5678 5675 5671 5668 5664 5660 5656 5652 5648
5685 5686 5688 5689 5690 5691 5693 5694 5695 5697 5697 5698 5699 5699 5700 5700 5701 5701 5700 5700 5699 5699 5699 5698 5695 5692 5689 5687 5684 5681 5679 5675 5672 5669 5665 5662 5658 5654 5650 5646 5642 5637 5633
5677 5678 5680 5681 5682 5683 5685 5686 5688 5688 5689 5689 5690 5690 5691 5691 5691 5691 5690 5689 5688 5687 5687 5686 5684 5681 5678 5676 5673 5669 5666 5663 5659 5655 5652 5648 5644 5640 5635 5631 5626 5622 5618
5669 5671 5672 5673 5674 5675 5677 5678 5679 5680 5681 5681 5681 5681 5682 5682 5681 5681 5679 5678 5677 5676 5675 5675 5672 5670 5667 5664 5661 5657 5654 5650 5646 5642 5638 5634 5630 5625 5621 5617 5612 5607 5603
5661 5663 5664 5665 5666 5667 5668 5669 5671 5671 5672 5672 5673 5673 5673 5672 5672 5671 5670 5668 5667 5665 5664 5663 5661 5658 5655 5652 5649 5645 5641 5637 5633 5629 5625 5620 5616 5612 5607 5603 5598 5594 5590
5653 5655 5656 5657 5658 5659 5660 5661 5662 5663 5663 5664 5664 5664 5664 5664 5663 5662 5660 5659 5657 5655 5653 5651 5650 5647 5643 5640 5637 5633 5628 5624 5620 5616 5611 5607 5603 5599 5594 5590 5585 5581 5578
5646 5647 5648 5650 5651 5652 5653 5653 5654 5654 5655 5655 5656 5655 5655 5655 5654 5652 5651 5649 5647 5645 5643 5640 5638 5635 5632 5628 5624 5621 5617 5613 5608 5603 5598 5594 5591 5586 5582 5577 5573 5569 5566
5639 5640 5641 5642 5643 5644 5645 5646 5646 5647 5647 5647 5647 5647 5647 5646 5645 5643 5641 5639 5637 5635 5632 5629 5627 5624 5620 5616 5613 5609 5605 5601 5597 5592 5587 5583 5579 5575 5570 5565 5561 5557 5555
5632 5634 5635 5636 5636 5637 5638 5639 5639 5639 5639 5640 5639 5639 5638 5637 5636 5634 5632 5630 5627 5624 5621 5619 5616 5613 5609 5605 5601 5597 5593 5589 5586 5582 5576 5572 5567 5563 5559 5554 5550 5546 5544
5625 5627 5628 5629 5629 5630 5631 5631 5631 5632 5632 5632 5631 5631 5630 5629 5627 5625 5623 5620 5617 5614 5611 5608 5605 5601 5598 5594 5590 5586 5581 5576 5573 5569 5564 5561 5557 5553 5548 5543 5539 5536 5533
5619 5620 5621 5622 5623 5623 5624 5624 5624 5624 5624 5624 5623 5622 5621 5620 5618 5616 5614 5611 5608 5604 5601 5597 5594 5591 5586 5582 5578 5574 5570 5566 5562 5557 5553 5551 5547 5543 5538 5533 5529 5526 5524
5613 5614 5615 5615 5616 5616 5616 5616 5616 5616 5616 5615 5615 5614 5613 5611 5609 5607 5604 5602 5599 5595 5591 5587 5583 5579 5574 5570 5566 5563 5559 5555 5552 5548 5543 5540 5537 5533 5530 5525 5520 5517 5516
5607 5607 5608 5609 5609 5609 5609 5609 5609 5609 5608 5607 5606 5605 5603 5602 5599 5596 5594 5591 5589 5585 5581 5577 5573 5568 5563 5559 5555 5551 5548 5544 5541 5538 5534 5530 5527 5523 5521 5518 5513 5509 5507